{"data":{"norad_id":64321,"epoch":"2026-09-20T23:08:50.309088Z","epoch_age_seconds":97365,"freshness":"FRESH","line1":"1 64321U 25124E   26263.96447117  .00067405  00000+0  52238-3 0  9992","line2":"2 64321  43.0023 292.3837 0002546 276.8554  83.2024 15.70936572 73541","mean_motion":15.70936572,"eccentricity":0.0002546,"inclination_deg":43.0023,"raan_deg":292.3837,"arg_perigee_deg":276.8554,"mean_anomaly_deg":83.2024,"bstar":0.00052238,"rev_number":7354,"period_min":91.665063100969,"perigee_km":354.50448780746,"apogee_km":357.93362191059,"semimajor_km":6734.356054859,"source":"CELESTRAK","updated_at":"2026-09-21T09:00:35.311339Z"}}